SCP
0 0 0 1 1 1 2 2 2 2 0 0 0 0 0 0 1 1 2 2 2 1 1 1 1 0 0 0 0 0 0 0
0 0 1 1 1 2 2 3 1 1 0 0 0 0 0 0 1 1 1 1 1 1 1 0 0 1 0 0 0 0 0 0
1 1 1 1 1 2 1 1 1 2 2 1 1 1 1 1 1 1 1 1 1 1 1 0 0 0 0 0 0 0 0 0
0 1 0 1 1 0 0 0 0 0 0 0 1 1 1 1 1 1 1 1 1 1 1 0 0 1 0 0 0 0 0 0
0 0 0 0 0 0 0 0 0 0 0 0 1 1 1 1 1 1 0 1 0 0 0 0 0 0 0 0 0 0 0 0
0 0 0 0 0 0 0 0 0 0 0 0 0 0 0 0 0 0 0 0 0 0 0 0 0 0 0 0 0 0 0 0
0 0 0 0 0 0 0 0 0 0 0 0 0 0 0 0 0 0 0 0 0 0 0 0 0 0 0 0 0 0 0 0
0 0 0 0 0 0 0 0 0 0 0 0 0 0 0 0 0 0 0 0 0 0 0 0 0 0 0 0 0 0 0 0
0 0 1 1 0 0 0 0 0 0 0 0 0 0 0 0 0 0 0 0 0 0 0 0 0 0 0 0 0 0 0 0
1 1 1 0 0 0 0 0 0 0 0 0 0 0 0 0 0 0 0 0 0 0 0 0 0 0 0 0 0 0 0 0
0 0 0 0 0 0 0 0 0 0 0 0 0 0 0 0 0 0 0 0 0 0 0 0 0 0 0 0 0 -0 0 0
0 0 0 0 0 0 0 0 0 0 0 0 0 0 0 0 0 0 0 0 0 0 0 0 0 0 0 0 0 0 0 0
0 0 0 0 0 0 0 0 0 0 0 0 0 0 0 0 0 0 0 0 0 0 0 0 0 0 0 0 0 0 0 0
0 0 0 0 0 0 0 0 0 0 0 0 0 0 0 0 0 0 0 0 0 0 0 0 0 0 0 0 0 0 0 0
0 0 0 0 0 0 0 0 0 0 0 0 0 0 0 0 0 0 0 0 0 0 0 0 0 0 0 0 0 0 0 0
0 0 0 0 0 0 0 0 0 0 0 0 0 0 0 0 0 0 0 0 0 0 0 0 0 0 0 0 0 -0 0 0
0 0 0 0 0 0 0 0 0 0 0 0 0 0 0 0 0 0 0 0 0 0 0 0 0 0 0 0 0 -0 0 0
0 0 0 0 0 0 0 0 0 0 0 0 0 0 0 0 0 0 0 0 0 0 0 0 -0 -0 0 0 0 0 0 0
0 0 0 0 0 0 0 0 0 0 0 0 0 0 0 0 0 0 0 0 0 0 0 0 0 0 0 0 0 0 0 0
0 0 0 0 0 0 0 0 0 0 0 0 -0 -0 -0 0 0 0 0 -0 -0 0 0 0 0 0 0 -0 0 0 0 0
Wind_Speed_500mb
11 12 13 15 15 17 17 19 17 8 20 37 57 51 41 42 55 47 42 34 35 39 38 38 33 31 32 29 34 37 44 49
14 11 7 7 9 12 13 15 19 21 7 6 10 13 26 33 31 28 28 28 32 30 33 35 37 37 36 36 36 37 40 46
26 24 24 20 17 14 8 4 3 8 6 6 11 15 19 18 21 23 23 23 27 29 30 31 34 36 33 28 31 34 36 43
28 30 32 29 22 20 19 14 9 7 3 2 3 7 12 15 17 18 18 21 23 24 27 24 24 24 25 28 30 33 36 43
23 24 22 19 15 12 9 9 9 7 5 4 6 10 13 19 21 18 19 22 21 22 25 30 27 25 37 35 32 35 36 39
15 14 14 13 11 10 9 8 7 5 5 7 13 19 20 18 14 19 29 34 40 38 39 38 36 38 39 39 42 47 52 55
7 5 5 7 8 10 8 8 11 13 16 16 19 19 19 21 27 30 29 30 30 31 33 37 35 34 42 43 45 44 45 46
1 3 7 8 12 12 9 11 12 12 14 16 18 19 20 23 22 26 24 25 32 38 41 41 40 42 43 46 44 46 40 40
6 6 6 5 10 13 9 11 10 11 15 18 21 19 20 23 23 22 29 32 32 37 43 42 41 39 40 45 43 48 46 48
6 8 7 6 11 10 11 12 10 15 16 16 18 20 20 21 25 30 33 35 38 44 45 47 42 39 40 41 48 49 50 56
9 10 11 9 8 12 13 17 18 17 15 16 21 23 25 26 29 35 39 40 43 48 52 51 47 43 43 43 39 47 54 55
13 13 13 15 15 15 20 23 22 22 24 29 29 30 32 33 35 44 44 48 50 52 54 54 55 52 48 42 45 51 49 47
9 12 16 17 18 19 20 22 24 31 35 36 37 41 39 42 46 48 54 51 52 59 51 56 59 55 49 54 54 51 58 58
15 17 20 23 26 30 31 30 29 33 38 42 43 45 50 49 52 56 55 61 58 58 60 55 51 42 47 50 57 62 69 50
23 25 27 31 34 36 36 33 31 32 33 37 44 46 48 48 52 58 67 64 53 50 40 50 46 37 46 58 64 54 42 34
18 20 23 26 28 29 30 26 25 27 28 36 39 40 43 52 55 60 56 49 49 42 36 38 44 46 56 41 37 32 18 13
20 24 29 30 32 32 23 19 19 22 27 36 35 43 52 55 48 43 45 44 42 44 42 38 39 42 23 25 21 14 9 7
24 29 30 33 31 27 19 18 23 28 36 41 45 43 38 32 35 38 41 45 43 36 28 26 26 14 14 15 5 22 27 24
31 32 32 30 31 28 25 25 28 35 36 29 29 29 25 24 29 34 35 37 39 32 23 18 9 8 14 17 25 36 30 24
36 31 24 27 28 18 24 24 22 20 24 21 16 17 17 23 26 28 28 29 27 18 15 14 22 32 31 41 32 25 24 22
Wind_Direction_500mb
325 285 255 235 213 194 183 163 158 197 302 308 283 272 242 278 276 285 283 282 284 280 276 278 269 267 269 277 270 266 262 260
56 63 89 127 164 177 176 182 227 277 334 236 275 282 290 279 280 284 293 292 286 285 282 275 275 277 275 279 277 277 276 275
68 75 84 92 100 102 102 147 64 91 46 350 321 294 277 284 293 301 303 294 297 301 300 295 290 289 283 280 283 283 282 283
81 83 86 88 84 83 86 83 82 103 72 333 284 283 294 303 315 317 314 312 314 311 308 303 300 297 287 296 300 300 291 289
87 86 86 83 80 81 69 71 77 85 79 54 13 351 330 326 323 322 317 313 310 313 310 305 300 306 300 305 301 305 311 302
86 83 79 70 60 54 60 76 77 59 39 8 3 352 340 330 324 312 307 309 309 310 308 303 295 303 291 300 294 291 290 287
93 72 31 9 3 346 5 1 2 356 353 351 342 332 318 309 308 314 320 324 322 319 313 304 298 303 302 301 306 296 287 288
226 298 308 328 319 323 358 339 336 333 334 333 328 323 319 316 320 321 323 326 323 315 312 308 302 302 301 301 297 296 294 295
263 282 289 297 317 323 330 322 318 330 325 319 318 315 314 314 316 317 314 316 314 321 318 315 311 310 307 305 298 295 296 294
256 264 274 285 308 313 306 303 310 313 311 313 311 310 309 310 309 310 310 312 311 317 320 317 311 310 311 315 313 312 300 293
263 275 283 279 294 306 300 300 300 296 300 308 305 304 304 305 312 316 310 310 308 314 318 320 315 314 311 314 317 310 309 307
274 277 286 293 292 296 296 299 289 281 281 292 299 304 302 299 308 313 314 313 311 309 309 314 313 310 307 307 308 311 313 310
281 286 294 286 289 294 288 292 284 283 286 289 292 296 298 304 307 310 309 303 303 303 301 305 305 298 298 300 303 309 311 307
293 295 287 282 281 283 283 281 284 286 285 285 292 300 301 306 308 310 306 305 302 301 304 307 306 298 296 301 299 303 307 292
295 292 288 284 282 285 285 284 285 291 286 288 291 295 299 308 312 312 310 309 306 306 303 304 307 313 312 310 306 309 311 296
305 304 302 300 297 294 294 290 293 293 292 293 301 299 308 309 310 309 305 307 311 311 312 310 311 317 322 319 315 315 329 324
304 302 302 298 297 294 287 300 304 300 302 298 298 302 306 306 307 307 310 312 314 314 316 317 314 319 330 352 1 356 8 71
297 294 293 296 294 291 295 309 308 308 304 306 308 313 310 311 310 312 312 315 317 316 318 315 314 344 354 323 49 98 85 96
290 291 291 290 290 284 296 309 310 310 309 313 318 322 315 318 324 326 326 322 320 316 316 326 1 47 27 89 88 75 65 58
287 287 289 301 288 278 304 310 320 328 320 314 311 335 348 357 349 351 358 3 10 29 68 74 91 92 96 91 74 71 64 60
Wind_Speed_850mb
11 12 13 15 15 17 17 19 17 8 20 37 57 51 41 42 55 47 42 34 35 39 38 38 33 31 32 29 34 37 44 49
14 11 7 7 9 12 13 15 19 21 7 6 10 13 26 33 31 28 28 28 32 30 33 35 37 37 36 36 36 37 40 46
26 24 24 20 17 14 8 4 3 8 6 6 11 15 19 18 21 23 23 23 27 29 30 31 34 36 33 28 31 34 36 43
28 30 32 29 22 20 19 14 9 7 3 2 3 7 12 15 17 18 18 21 23 24 27 24 24 24 25 28 30 33 36 43
23 24 22 19 15 12 9 9 9 7 5 4 6 10 13 19 21 18 19 22 21 22 25 30 27 25 37 35 32 35 36 39
15 14 14 13 11 10 9 8 7 5 5 7 13 19 20 18 14 19 29 34 40 38 39 38 36 38 39 39 42 47 52 55
7 5 5 7 8 10 8 8 11 13 16 16 19 19 19 21 27 30 29 30 30 31 33 37 35 34 42 43 45 44 45 46
1 3 7 8 12 12 9 11 12 12 14 16 18 19 20 23 22 26 24 25 32 38 41 41 40 42 43 46 44 46 40 40
6 6 6 5 10 13 9 11 10 11 15 18 21 19 20 23 23 22 29 32 32 37 43 42 41 39 40 45 43 48 46 48
6 8 7 6 11 10 11 12 10 15 16 16 18 20 20 21 25 30 33 35 38 44 45 47 42 39 40 41 48 49 50 56
9 10 11 9 8 12 13 17 18 17 15 16 21 23 25 26 29 35 39 40 43 48 52 51 47 43 43 43 39 47 54 55
13 13 13 15 15 15 20 23 22 22 24 29 29 30 32 33 35 44 44 48 50 52 54 54 55 52 48 42 45 51 49 47
9 12 16 17 18 19 20 22 24 31 35 36 37 41 39 42 46 48 54 51 52 59 51 56 59 55 49 54 54 51 58 58
15 17 20 23 26 30 31 30 29 33 38 42 43 45 50 49 52 56 55 61 58 58 60 55 51 42 47 50 57 62 69 50
23 25 27 31 34 36 36 33 31 32 33 37 44 46 48 48 52 58 67 64 53 50 40 50 46 37 46 58 64 54 42 34
18 20 23 26 28 29 30 26 25 27 28 36 39 40 43 52 55 60 56 49 49 42 36 38 44 46 56 41 37 32 18 13
20 24 29 30 32 32 23 19 19 22 27 36 35 43 52 55 48 43 45 44 42 44 42 38 39 42 23 25 21 14 9 7
24 29 30 33 31 27 19 18 23 28 36 41 45 43 38 32 35 38 41 45 43 36 28 26 26 14 14 15 5 22 27 24
31 32 32 30 31 28 25 25 28 35 36 29 29 29 25 24 29 34 35 37 39 32 23 18 9 8 14 17 25 36 30 24
36 31 24 27 28 18 24 24 22 20 24 21 16 17 17 23 26 28 28 29 27 18 15 14 22 32 31 41 32 25 24 22
Wind_Direction_850mb
325 285 255 235 213 194 183 163 158 197 302 308 283 272 242 278 276 285 283 282 284 280 276 278 269 267 269 277 270 266 262 260
56 63 89 127 164 177 176 182 227 277 334 236 275 282 290 279 280 284 293 292 286 285 282 275 275 277 275 279 277 277 276 275
68 75 84 92 100 102 102 147 64 91 46 350 321 294 277 284 293 301 303 294 297 301 300 295 290 289 283 280 283 283 282 283
81 83 86 88 84 83 86 83 82 103 72 333 284 283 294 303 315 317 314 312 314 311 308 303 300 297 287 296 300 300 291 289
87 86 86 83 80 81 69 71 77 85 79 54 13 351 330 326 323 322 317 313 310 313 310 305 300 306 300 305 301 305 311 302
86 83 79 70 60 54 60 76 77 59 39 8 3 352 340 330 324 312 307 309 309 310 308 303 295 303 291 300 294 291 290 287
93 72 31 9 3 346 5 1 2 356 353 351 342 332 318 309 308 314 320 324 322 319 313 304 298 303 302 301 306 296 287 288
226 298 308 328 319 323 358 339 336 333 334 333 328 323 319 316 320 321 323 326 323 315 312 308 302 302 301 301 297 296 294 295
263 282 289 297 317 323 330 322 318 330 325 319 318 315 314 314 316 317 314 316 314 321 318 315 311 310 307 305 298 295 296 294
256 264 274 285 308 313 306 303 310 313 311 313 311 310 309 310 309 310 310 312 311 317 320 317 311 310 311 315 313 312 300 293
263 275 283 279 294 306 300 300 300 296 300 308 305 304 304 305 312 316 310 310 308 314 318 320 315 314 311 314 317 310 309 307
274 277 286 293 292 296 296 299 289 281 281 292 299 304 302 299 308 313 314 313 311 309 309 314 313 310 307 307 308 311 313 310
281 286 294 286 289 294 288 292 284 283 286 289 292 296 298 304 307 310 309 303 303 303 301 305 305 298 298 300 303 309 311 307
293 295 287 282 281 283 283 281 284 286 285 285 292 300 301 306 308 310 306 305 302 301 304 307 306 298 296 301 299 303 307 292
295 292 288 284 282 285 285 284 285 291 286 288 291 295 299 308 312 312 310 309 306 306 303 304 307 313 312 310 306 309 311 296
305 304 302 300 297 294 294 290 293 293 292 293 301 299 308 309 310 309 305 307 311 311 312 310 311 317 322 319 315 315 329 324
304 302 302 298 297 294 287 300 304 300 302 298 298 302 306 306 307 307 310 312 314 314 316 317 314 319 330 352 1 356 8 71
297 294 293 296 294 291 295 309 308 308 304 306 308 313 310 311 310 312 312 315 317 316 318 315 314 344 354 323 49 98 85 96
290 291 291 290 290 284 296 309 310 310 309 313 318 322 315 318 324 326 326 322 320 316 316 326 1 47 27 89 88 75 65 58
287 287 289 301 288 278 304 310 320 328 320 314 311 335 348 357 349 351 358 3 10 29 68 74 91 92 96 91 74 71 64 60